ARG1679 SAZS-SABE

Flight info

Callsign ARG1679
Flight time N/A
Altitude 39000
Route LIMAY2C LIMAY UW26 EGUNO UZ109 ISMIL UT655 ASADA ASADA8Q
Aircraft B738/M-SDE2E3FGHIRWXY/LB1

Departure

Time 2026-04-21 22:43
Airport Teniente Luis Candelaria International Airport (SAZS)

Arrival

Time N/A
Airport Aeroparque Jorge Newbery (SABE)
Time Latitude Longitude Altitude Speed Heading
2026-04-21 22:07 -41.14676 -71.16148 2789 ft 0 kts 45°
2026-04-21 22:32 -41.14679 -71.16151 2788 ft 2 kts 45°
2026-04-21 22:33 -41.14690 -71.16166 2788 ft 2 kts 45°
2026-04-21 22:33 -41.14701 -71.16180 2788 ft 2 kts 45°
2026-04-21 22:33 -41.14711 -71.16193 2788 ft 2 kts 45°
2026-04-21 22:33 -41.14722 -71.16208 2788 ft 2 kts 45°
2026-04-21 22:34 -41.14732 -71.16222 2788 ft 2 kts 45°
2026-04-21 22:34 -41.14743 -71.16236 2788 ft 2 kts 45°
2026-04-21 22:34 -41.14753 -71.16250 2788 ft 2 kts 45°
2026-04-21 22:34 -41.14763 -71.16265 2788 ft 2 kts 72°
2026-04-21 22:35 -41.14764 -71.16285 2788 ft 1 kts 106°
2026-04-21 22:35 -41.14762 -71.16292 2788 ft 0 kts 119°
2026-04-21 22:35 -41.14774 -71.16262 2788 ft 6 kts 124°
2026-04-21 22:35 -41.14800 -71.16219 2788 ft 5 kts 119°
2026-04-21 22:36 -41.14809 -71.16193 2788 ft 0 kts 115°
2026-04-21 22:36 -41.14809 -71.16192 2788 ft 0 kts 115°
2026-04-21 22:38 -41.14811 -71.16187 2789 ft 1 kts 115°
2026-04-21 22:38 -41.14823 -71.16151 2789 ft 7 kts 115°
2026-04-21 22:38 -41.14853 -71.16067 2789 ft 12 kts 115°
2026-04-21 22:38 -41.14898 -71.15938 2789 ft 17 kts 114°
2026-04-21 22:39 -41.14956 -71.15769 2789 ft 22 kts 114°
2026-04-21 22:39 -41.15028 -71.15559 2789 ft 27 kts 114°
2026-04-21 22:39 -41.15106 -71.15332 2789 ft 26 kts 114°
2026-04-21 22:39 -41.15183 -71.15108 2789 ft 26 kts 114°
2026-04-21 22:40 -41.15260 -71.14887 2789 ft 26 kts 114°
2026-04-21 22:40 -41.15337 -71.14664 2789 ft 26 kts 114°
2026-04-21 22:40 -41.15400 -71.14489 2789 ft 14 kts 129°
2026-04-21 22:40 -41.15453 -71.14477 2789 ft 0 kts 204°
2026-04-21 22:42 -41.15474 -71.14490 2789 ft 9 kts 204°
2026-04-21 22:42 -41.15524 -71.14540 2789 ft 8 kts 249°
2026-04-21 22:42 -41.15509 -71.14628 2789 ft 15 kts 294°
2026-04-21 22:42 -41.15386 -71.14986 2789 ft 75 kts 294°
2026-04-21 22:43 -41.15083 -71.15861 2789 ft 133 kts 294°
2026-04-21 22:43 -41.14642 -71.17148 3020 ft 159 kts 296°
2026-04-21 22:43 -41.14181 -71.18392 3791 ft 154 kts 294°
2026-04-21 22:43 -41.13758 -71.19729 4366 ft 162 kts 292°
2026-04-21 22:44 -41.13306 -71.21151 4840 ft 173 kts 294°
2026-04-21 22:44 -41.12795 -71.22660 5255 ft 187 kts 294°
2026-04-21 22:44 -41.12244 -71.24279 5712 ft 202 kts 294°
2026-04-21 22:44 -41.11653 -71.26029 6188 ft 216 kts 294°
2026-04-21 22:45 -41.11009 -71.27941 6711 ft 232 kts 294°
2026-04-21 22:45 -41.10364 -71.29857 7556 ft 232 kts 294°
2026-04-21 22:45 -41.09697 -71.31829 8414 ft 234 kts 294°
2026-04-21 22:45 -41.09035 -71.33786 9257 ft 236 kts 293°
2026-04-21 22:46 -41.08357 -71.35774 10117 ft 238 kts 296°
2026-04-21 22:46 -41.07362 -71.37486 10940 ft 244 kts 319°
2026-04-21 22:46 -41.05810 -71.38502 11734 ft 254 kts 341°
2026-04-21 22:46 -41.04044 -71.38790 12585 ft 262 kts 355°
2026-04-21 22:47 -41.02243 -71.38331 13373 ft 276 kts 19°
2026-04-21 22:47 -41.00694 -71.36740 14180 ft 293 kts 47°
2026-04-21 22:47 -40.99768 -71.34277 15003 ft 306 kts 71°
2026-04-21 22:47 -40.99586 -71.31478 15813 ft 316 kts 95°
2026-04-21 22:48 -41.00166 -71.28661 16603 ft 321 kts 107°
2026-04-21 22:48 -41.00746 -71.25813 17288 ft 323 kts 91°
2026-04-21 22:48 -41.00450 -71.22910 18049 ft 312 kts 62°
2026-04-21 22:48 -40.99458 -71.20416 18747 ft 309 kts 51°
2026-04-21 22:49 -40.98208 -71.18045 19167 ft 321 kts 47°
2026-04-21 22:49 -40.96839 -71.15633 19583 ft 335 kts 47°
2026-04-21 22:49 -40.95397 -71.13094 19951 ft 350 kts 47°
2026-04-21 22:49 -40.93931 -71.10480 20338 ft 363 kts 48°
2026-04-21 22:50 -40.92400 -71.07716 20705 ft 377 kts 49°
2026-04-21 22:50 -40.90816 -71.04838 21007 ft 393 kts 49°
2026-04-21 22:50 -40.89174 -71.01846 21330 ft 407 kts 49°
2026-04-21 22:50 -40.87494 -70.98778 21805 ft 416 kts 49°
2026-04-21 22:51 -40.85797 -70.95675 22519 ft 419 kts 49°
2026-04-21 22:51 -40.84096 -70.92564 23145 ft 423 kts 49°
2026-04-21 22:51 -40.82366 -70.89404 23773 ft 427 kts 49°
2026-04-21 22:51 -40.80614 -70.86209 24380 ft 431 kts 49°
2026-04-21 22:52 -40.78845 -70.82989 25040 ft 434 kts 49°
2026-04-21 22:52 -40.77051 -70.79732 25583 ft 439 kts 49°
2026-04-21 22:52 -40.75250 -70.76466 26212 ft 442 kts 48°
2026-04-21 22:52 -40.73449 -70.73206 26775 ft 446 kts 48°
2026-04-21 22:53 -40.71618 -70.69894 27329 ft 450 kts 48°
2026-04-21 22:53 -40.69752 -70.66525 27826 ft 454 kts 48°
2026-04-21 22:53 -40.67904 -70.63191 28417 ft 456 kts 48°
2026-04-21 22:53 -40.65997 -70.59754 28878 ft 461 kts 48°
2026-04-21 22:54 -40.64109 -70.56353 29399 ft 464 kts 48°
2026-04-21 22:54 -40.62172 -70.52866 30064 ft 463 kts 48°
2026-04-21 22:54 -40.60287 -70.49448 30872 ft 459 kts 48°
2026-04-21 22:54 -40.58485 -70.46018 31605 ft 458 kts 50°
2026-04-21 22:55 -40.56741 -70.42523 32219 ft 458 kts 51°
2026-04-21 22:55 -40.55037 -70.39015 32883 ft 456 kts 51°
2026-04-21 22:55 -40.53345 -70.35493 33609 ft 452 kts 51°
2026-04-21 22:55 -40.51679 -70.32020 34225 ft 449 kts 51°
2026-04-21 22:56 -40.50012 -70.28554 34690 ft 448 kts 51°
2026-04-21 22:56 -40.48339 -70.25092 34972 ft 451 kts 50°
2026-04-21 22:56 -40.46644 -70.21600 35365 ft 451 kts 50°
2026-04-21 22:56 -40.44969 -70.18157 35714 ft 452 kts 50°
2026-04-21 22:57 -40.43261 -70.14659 36030 ft 453 kts 50°
2026-04-21 22:57 -40.41572 -70.11199 36496 ft 452 kts 51°
2026-04-21 22:57 -40.39858 -70.07692 36808 ft 455 kts 50°
2026-04-21 22:57 -40.38144 -70.04194 37239 ft 456 kts 50°
2026-04-21 22:58 -40.36430 -70.00697 37698 ft 455 kts 50°
2026-04-21 22:58 -40.34735 -69.97246 38000 ft 456 kts 50°
2026-04-21 22:58 -40.32999 -69.93720 38261 ft 458 kts 50°
2026-04-21 22:58 -40.31266 -69.90201 38565 ft 459 kts 50°
2026-04-21 22:59 -40.29546 -69.86710 38876 ft 459 kts 51°
2026-04-21 22:59 -40.27794 -69.83154 39011 ft 462 kts 51°
2026-04-21 22:59 -40.24314 -69.76111 39011 ft 462 kts 51°
2026-04-21 23:00 -40.20842 -69.69086 39016 ft 459 kts 51°
2026-04-21 23:00 -40.17350 -69.62051 39006 ft 461 kts 51°
2026-04-21 23:01 -40.13862 -69.55048 39007 ft 460 kts 51°
2026-04-21 23:01 -40.10370 -69.48048 39011 ft 460 kts 51°
2026-04-21 23:02 -40.06873 -69.41050 38999 ft 462 kts 51°
2026-04-21 23:02 -40.03335 -69.33983 39009 ft 463 kts 50°
2026-04-21 23:03 -39.99827 -69.26984 39014 ft 461 kts 50°
2026-04-21 23:03 -39.96315 -69.19998 39016 ft 462 kts 50°
2026-04-21 23:04 -39.92785 -69.12999 39001 ft 463 kts 50°
2026-04-21 23:04 -39.89236 -69.05977 39004 ft 463 kts 51°
2026-04-21 23:05 -39.85704 -68.99002 39013 ft 463 kts 50°
2026-04-21 23:05 -39.82145 -68.91999 39014 ft 466 kts 51°
2026-04-21 23:06 -39.78576 -68.84985 38998 ft 464 kts 51°
2026-04-21 23:06 -39.75012 -68.77985 38999 ft 463 kts 51°
2026-04-21 23:07 -39.71428 -68.70969 39017 ft 465 kts 51°
2026-04-21 23:07 -39.67860 -68.64006 39011 ft 466 kts 51°
2026-04-21 23:08 -39.64251 -68.56977 39013 ft 466 kts 51°
2026-04-21 23:08 -39.60659 -68.49992 39011 ft 465 kts 51°
2026-04-21 23:09 -39.57056 -68.43004 39021 ft 466 kts 51°
2026-04-21 23:09 -39.53457 -68.36035 39010 ft 466 kts 51°
2026-04-21 23:10 -39.49844 -68.29057 39019 ft 466 kts 51°
2026-04-21 23:10 -39.46227 -68.22087 39019 ft 467 kts 51°
2026-04-21 23:11 -39.42616 -68.15143 39010 ft 467 kts 51°
2026-04-21 23:11 -39.38967 -68.08141 39015 ft 467 kts 51°
2026-04-21 23:12 -39.35326 -68.01163 39013 ft 465 kts 51°
2026-04-21 23:12 -39.31715 -67.94259 39000 ft 464 kts 51°
2026-04-21 23:13 -39.28093 -67.87354 39012 ft 465 kts 51°
2026-04-21 23:13 -39.24469 -67.80466 39004 ft 467 kts 51°
2026-04-21 23:14 -39.20818 -67.73535 39006 ft 466 kts 51°
2026-04-21 23:14 -39.17147 -67.66583 38998 ft 467 kts 51°
2026-04-21 23:15 -39.13509 -67.59715 39003 ft 467 kts 51°
2026-04-21 23:15 -39.09847 -67.52814 39002 ft 467 kts 51°
2026-04-21 23:16 -39.06157 -67.45869 39002 ft 468 kts 51°
2026-04-21 23:16 -39.02494 -67.38984 39013 ft 468 kts 51°
2026-04-21 23:17 -38.98792 -67.32050 39010 ft 467 kts 50°
2026-04-21 23:17 -38.95124 -67.25189 39004 ft 468 kts 50°
2026-04-21 23:18 -38.91437 -67.18314 39024 ft 467 kts 50°
2026-04-21 23:18 -38.87744 -67.11436 39017 ft 467 kts 50°
2026-04-21 23:19 -38.84037 -67.04552 39038 ft 469 kts 50°
2026-04-21 23:19 -38.80338 -66.97702 39012 ft 467 kts 51°
2026-04-21 23:20 -38.76620 -66.90828 39006 ft 470 kts 51°
2026-04-21 23:20 -38.72897 -66.83959 39006 ft 470 kts 51°
2026-04-21 23:21 -38.69172 -66.77101 39026 ft 470 kts 51°
2026-04-21 23:21 -38.65437 -66.70234 39017 ft 469 kts 51°
2026-04-21 23:22 -38.61700 -66.63375 39005 ft 470 kts 51°
2026-04-21 23:22 -38.57944 -66.56501 39021 ft 471 kts 51°
2026-04-21 23:23 -38.54169 -66.49608 39016 ft 472 kts 51°
2026-04-21 23:23 -38.50406 -66.42754 39006 ft 473 kts 51°
2026-04-21 23:24 -38.46617 -66.35862 39031 ft 472 kts 51°
2026-04-21 23:24 -38.42859 -66.29031 39023 ft 471 kts 50°
2026-04-21 23:25 -38.39099 -66.22221 39026 ft 472 kts 50°
2026-04-21 23:25 -38.35310 -66.15377 39026 ft 471 kts 50°
2026-04-21 23:26 -38.31511 -66.08524 39015 ft 472 kts 50°
2026-04-21 23:26 -38.27704 -66.01683 39028 ft 474 kts 50°
2026-04-21 23:27 -38.23918 -65.94885 39024 ft 472 kts 50°
2026-04-21 23:27 -38.20112 -65.88059 39016 ft 473 kts 50°
2026-04-21 23:28 -38.16291 -65.81221 39048 ft 475 kts 50°
2026-04-21 23:28 -38.12460 -65.74387 39035 ft 473 kts 50°
2026-04-21 23:29 -38.08611 -65.67537 39030 ft 475 kts 50°
2026-04-21 23:29 -38.04754 -65.60686 39043 ft 476 kts 50°
2026-04-21 23:30 -38.00908 -65.53864 39067 ft 476 kts 50°
2026-04-21 23:30 -37.97070 -65.47070 39043 ft 476 kts 50°
2026-04-21 23:31 -37.93204 -65.40245 39049 ft 477 kts 50°
2026-04-21 23:31 -37.89296 -65.33355 39057 ft 478 kts 49°
2026-04-21 23:32 -37.85410 -65.26507 39036 ft 477 kts 49°
2026-04-21 23:32 -37.81516 -65.19676 39039 ft 478 kts 49°
2026-04-21 23:33 -37.77630 -65.12879 39054 ft 478 kts 49°
2026-04-21 23:33 -37.73719 -65.06043 39060 ft 478 kts 49°
2026-04-21 23:34 -37.69817 -64.99246 39058 ft 479 kts 49°
2026-04-21 23:34 -37.65918 -64.92461 39069 ft 480 kts 49°
2026-04-21 23:35 -37.61966 -64.85594 39064 ft 480 kts 49°
2026-04-21 23:35 -37.58045 -64.78796 39070 ft 481 kts 49°
2026-04-21 23:36 -37.54071 -64.71923 39076 ft 482 kts 49°
2026-04-21 23:36 -37.50119 -64.65102 39067 ft 483 kts 49°
2026-04-21 23:37 -37.46133 -64.58231 39075 ft 483 kts 49°
2026-04-21 23:37 -37.42136 -64.51357 39067 ft 483 kts 49°
2026-04-21 23:38 -37.38141 -64.44508 39074 ft 485 kts 48°
2026-04-21 23:38 -37.34184 -64.37650 39075 ft 488 kts 51°
2026-04-21 23:39 -37.30584 -64.30404 39079 ft 489 kts 54°
2026-04-21 23:39 -37.27198 -64.22919 39068 ft 490 kts 55°
2026-04-21 23:40 -37.23862 -64.15472 39069 ft 490 kts 55°
2026-04-21 23:40 -37.20479 -64.08019 39075 ft 491 kts 55°
2026-04-21 23:41 -37.17071 -64.00575 39077 ft 490 kts 54°
2026-04-21 23:41 -37.13672 -63.93191 39078 ft 494 kts 54°
2026-04-21 23:42 -37.10225 -63.85735 39083 ft 493 kts 54°
2026-04-21 23:42 -37.06799 -63.78342 39083 ft 491 kts 54°
2026-04-21 23:43 -37.03347 -63.70921 39092 ft 494 kts 54°
2026-04-21 23:43 -36.99877 -63.63469 39083 ft 492 kts 54°
2026-04-21 23:44 -36.96432 -63.56090 39079 ft 495 kts 54°
2026-04-21 23:44 -36.92934 -63.48616 39081 ft 498 kts 54°
2026-04-21 23:45 -36.87710 -63.37471 39080 ft 496 kts 54°
2026-04-21 23:46 -36.84212 -63.30034 39077 ft 496 kts 53°
2026-04-21 23:46 -36.80717 -63.22624 39076 ft 495 kts 53°
2026-04-21 23:47 -36.77188 -63.15173 39084 ft 498 kts 53°
2026-04-21 23:47 -36.73671 -63.07747 39068 ft 498 kts 53°
2026-04-21 23:48 -36.70133 -63.00305 39065 ft 498 kts 52°
2026-04-21 23:48 -36.66585 -62.92852 39066 ft 501 kts 53°
2026-04-21 23:49 -36.63025 -62.85386 39070 ft 501 kts 52°
2026-04-21 23:49 -36.59484 -62.77970 39070 ft 499 kts 52°
2026-04-21 23:50 -36.55897 -62.70491 39064 ft 503 kts 53°
2026-04-21 23:50 -36.52345 -62.63086 39072 ft 501 kts 52°
2026-04-21 23:51 -36.48747 -62.55596 39060 ft 504 kts 52°
2026-04-21 23:51 -36.45124 -62.48086 39070 ft 503 kts 52°
2026-04-21 23:52 -36.41508 -62.40623 39067 ft 504 kts 52°
2026-04-21 23:52 -36.37880 -62.33139 39065 ft 505 kts 51°
2026-04-21 23:53 -36.34259 -62.25671 39061 ft 504 kts 51°
2026-04-21 23:53 -36.30628 -62.18206 39067 ft 509 kts 51°
2026-04-21 23:54 -36.26955 -62.10673 39060 ft 506 kts 51°
2026-04-21 23:54 -36.23283 -62.03161 39067 ft 510 kts 51°
2026-04-21 23:55 -36.19615 -61.95662 39062 ft 508 kts 51°
2026-04-21 23:55 -36.15929 -61.88127 39056 ft 511 kts 51°
2026-04-21 23:56 -36.12259 -61.80661 39054 ft 509 kts 50°
2026-04-21 23:56 -36.08537 -61.73115 39058 ft 512 kts 51°
2026-04-21 23:57 -36.04838 -61.65605 39056 ft 511 kts 51°
2026-04-21 23:57 -36.01128 -61.58135 39052 ft 511 kts 50°
2026-04-21 23:58 -35.97390 -61.50570 39055 ft 513 kts 51°
2026-04-21 23:58 -35.93679 -61.43075 39048 ft 514 kts 50°
2026-04-21 23:59 -35.89933 -61.35540 39045 ft 514 kts 51°
2026-04-21 23:59 -35.86195 -61.28023 39038 ft 513 kts 50°
2026-04-22 00:00 -35.82482 -61.20509 39039 ft 514 kts 50°
2026-04-22 00:00 -35.78759 -61.12976 39034 ft 516 kts 51°
2026-04-22 00:01 -35.75011 -61.05419 39012 ft 515 kts 50°
2026-04-22 00:01 -35.71303 -60.97944 39041 ft 513 kts 50°
2026-04-22 00:02 -35.67707 -60.90237 39032 ft 523 kts 55°
2026-04-22 00:02 -35.64682 -60.82090 39030 ft 526 kts 60°
2026-04-22 00:03 -35.61886 -60.73804 39036 ft 528 kts 61°
2026-04-22 00:03 -35.59059 -60.65399 39039 ft 528 kts 60°
2026-04-22 00:03 -35.57657 -60.61270 38799 ft 530 kts 61°
2026-04-22 00:04 -35.56214 -60.57085 38503 ft 530 kts 60°
2026-04-22 00:04 -35.54748 -60.52909 38216 ft 529 kts 59°
2026-04-22 00:04 -35.53298 -60.48812 37975 ft 528 kts 60°
2026-04-22 00:04 -35.51822 -60.44656 37737 ft 528 kts 60°
2026-04-22 00:05 -35.50367 -60.40551 37490 ft 523 kts 60°
2026-04-22 00:05 -35.48934 -60.36486 37242 ft 518 kts 60°
2026-04-22 00:05 -35.47493 -60.32393 36993 ft 515 kts 60°
2026-04-22 00:05 -35.46067 -60.28365 36749 ft 516 kts 59°
2026-04-22 00:06 -35.44627 -60.24324 36498 ft 517 kts 59°
2026-04-22 00:06 -35.43193 -60.20321 36245 ft 516 kts 59°
2026-04-22 00:06 -35.41750 -60.16285 35989 ft 514 kts 60°
2026-04-22 00:06 -35.40319 -60.12285 35738 ft 515 kts 60°
2026-04-22 00:07 -35.38876 -60.08254 35482 ft 516 kts 60°
2026-04-22 00:07 -35.37445 -60.04263 35228 ft 515 kts 60°
2026-04-22 00:07 -35.36002 -60.00237 34968 ft 513 kts 60°
2026-04-22 00:07 -35.34575 -59.96257 34717 ft 513 kts 60°
2026-04-22 00:08 -35.33144 -59.92268 34461 ft 512 kts 60°
2026-04-22 00:08 -35.31697 -59.88237 33911 ft 517 kts 61°
2026-04-22 00:08 -35.30253 -59.84215 32943 ft 523 kts 62°
2026-04-22 00:08 -35.28764 -59.80087 32298 ft 521 kts 62°
2026-04-22 00:09 -35.27321 -59.76079 32196 ft 511 kts 62°
2026-04-22 00:09 -35.25908 -59.72153 32069 ft 502 kts 62°
2026-04-22 00:09 -35.24555 -59.68402 31548 ft 498 kts 62°
2026-04-22 00:09 -35.23159 -59.64546 30811 ft 496 kts 63°
2026-04-22 00:10 -35.21784 -59.60765 30174 ft 491 kts 64°
2026-04-22 00:10 -35.20392 -59.56938 29486 ft 485 kts 64°
2026-04-22 00:10 -35.19026 -59.53189 28371 ft 489 kts 64°
2026-04-22 00:10 -35.17630 -59.49363 27016 ft 496 kts 64°
2026-04-22 00:11 -35.16228 -59.45534 25923 ft 506 kts 64°
2026-04-22 00:11 -35.14781 -59.41578 25287 ft 505 kts 64°
2026-04-22 00:11 -35.13365 -59.37703 24883 ft 500 kts 63°
2026-04-22 00:11 -35.11946 -59.33820 24394 ft 497 kts 63°
2026-04-22 00:12 -35.10544 -59.29987 23944 ft 494 kts 63°
2026-04-22 00:12 -35.09161 -59.26206 23279 ft 490 kts 62°
2026-04-22 00:12 -35.07771 -59.22410 22492 ft 485 kts 62°
2026-04-22 00:12 -35.06414 -59.18716 21790 ft 481 kts 62°
2026-04-22 00:13 -35.05051 -59.15010 21202 ft 476 kts 62°
2026-04-22 00:13 -35.03698 -59.11331 20586 ft 473 kts 62°
2026-04-22 00:13 -35.02365 -59.07714 20039 ft 467 kts 61°
2026-04-22 00:13 -35.01031 -59.04100 19406 ft 464 kts 61°
2026-04-22 00:14 -34.99697 -59.00496 18811 ft 461 kts 60°
2026-04-22 00:14 -34.98386 -58.96956 18203 ft 458 kts 60°
2026-04-22 00:14 -34.97081 -58.93430 17689 ft 453 kts 60°
2026-04-22 00:14 -34.95784 -58.89934 17110 ft 449 kts 61°
2026-04-22 00:15 -34.94524 -58.86539 16669 ft 440 kts 61°
2026-04-22 00:15 -34.93274 -58.83163 16391 ft 425 kts 61°
2026-04-22 00:15 -34.92091 -58.79966 16199 ft 411 kts 61°
2026-04-22 00:15 -34.90929 -58.76826 16016 ft 396 kts 60°
2026-04-22 00:16 -34.89818 -58.73836 15847 ft 383 kts 60°
2026-04-22 00:16 -34.88729 -58.70918 15733 ft 371 kts 60°
2026-04-22 00:16 -34.87686 -58.68127 15627 ft 357 kts 60°
2026-04-22 00:16 -34.86676 -58.65420 15343 ft 342 kts 60°
2026-04-22 00:17 -34.85725 -58.62877 15142 ft 325 kts 59°
2026-04-22 00:17 -34.84793 -58.60400 14677 ft 320 kts 59°
2026-04-22 00:17 -34.83857 -58.57950 14174 ft 317 kts 59°
2026-04-22 00:17 -34.82928 -58.55528 13658 ft 314 kts 59°
2026-04-22 00:18 -34.82003 -58.53114 13180 ft 309 kts 59°
2026-04-22 00:18 -34.81108 -58.50759 12644 ft 308 kts 60°
2026-04-22 00:18 -34.80216 -58.48397 12166 ft 304 kts 59°
2026-04-22 00:18 -34.79349 -58.46088 11683 ft 301 kts 59°
2026-04-22 00:19 -34.78481 -58.43779 11165 ft 299 kts 59°
2026-04-22 00:19 -34.77615 -58.41480 10681 ft 296 kts 60°
2026-04-22 00:19 -34.76763 -58.39220 10196 ft 293 kts 59°
2026-04-22 00:19 -34.75915 -58.36987 9730 ft 289 kts 59°
2026-04-22 00:20 -34.75091 -58.34815 9549 ft 274 kts 59°
2026-04-22 00:20 -34.74320 -58.32767 9317 ft 263 kts 58°
2026-04-22 00:20 -34.73557 -58.30754 8945 ft 259 kts 59°
2026-04-22 00:20 -34.72801 -58.28766 8531 ft 257 kts 59°
2026-04-22 00:21 -34.72053 -58.26822 8184 ft 253 kts 56°
2026-04-22 00:21 -34.71127 -58.25054 7917 ft 241 kts 39°
2026-04-22 00:21 -34.69805 -58.24048 7699 ft 213 kts
2026-04-22 00:21 -34.68407 -58.23910 7574 ft 191 kts 353°
2026-04-22 00:22 -34.67126 -58.23895 7474 ft 177 kts 353°
2026-04-22 00:22 -34.65980 -58.24061 7373 ft 163 kts 333°